Regional Weather Roundup
Issued by NWS Pendleton, OR

Home | Current Version | Previous Version | Text Only | Print | Product List | Glossary On
Versions: 1 2 3 4 5 6 7 8 9 10 11 12 13 14 15 16 17 18 19 20 21 22 23 24 25 26 27 28 29 30 31 32 33 34 35 36 37 38 39 40 41 42 43 44 45 46 47 48 49 50
801
ASUS46 KPDT 101304
RWRPDT
PENDLETON REGIONAL WEATHER ROUNDUP
NATIONAL WEATHER SERVICE PENDLETON OREGON
500 AM PST WED FEB 10 2016

NOTE: FAIR INDICATES FEW OR NO CLOUDS BELOW 12,000 FEET WITH NO
SIGNIFICANT WEATHER AND/OR OBSTRUCTIONS TO VISIBILITY.

# INDICATES UNOFFICIAL STATION AND DATA

WAZ520-101410-
EAST SLOPES OF WASHINGTON CASCADES

CITY            SKY/WX      TMP DP  RH  WIND    PRES   REMARKS
#CLE ELUM HS    N/A         29  27  92  CALM    30.16F
#CLE ELUM 2NW   N/A         27  27  100 CALM    N/A
#CLE ELUM LAKE  N/A         33  31  92  CALM    30.22F
#CLIFFDEL 2NW   N/A         28  27  96  CALM    N/A
#GLENWOOD       N/A         27  26  96  CALM    30.28R
#MANASTASH CYN  N/A         28  24  85  CALM    30.15F
#NELSON 3SW     N/A         30  29  96  CALM    30.47F
#NILE           N/A         28  27  96  CALM    29.53F
#PEOH POINT     N/A         38  31  76  E5      N/A
#RONALD 2NW     N/A         32  N/A N/A CALM    30.04S
#SNOWDEN        N/A         32  26  78  CALM    N/A
#TEANAWAY 4NE   N/A         27  26  96  CALM    N/A
#TROUT LAKE 1NE N/A         29  28  96  CALM    30.27S
$$

WAZ521-101410-
SIMCOE HIGHLANDS

CITY            SKY/WX      TMP DP  RH  WIND    PRES   REMARKS
#CENTERVILLE 1SWN/A         28  26  92  CALM    30.24R
#GOLDENDALE     N/A         31  30  96  E2      N/A
#GOLDENDALE 1NE N/A         32  28  85  CALM    N/A
#GOODNOE HILLS  N/A         36  30  79  E3      30.11S
#LYLE 6NE       N/A         35  34  96  CALM    30.23R
$$

WAZ026-101410-
KITTITAS VALLEY

CITY            SKY/WX      TMP DP  RH  WIND    PRES   REMARKS
ELLENSBURG AP   FRZFOG      22  19  88  W3      30.23F VSB 1/2
#ELLENSBURG CWU N/A         23  22  96  CALM    30.27F
#ELLENSBURG 3NE N/A         23  22  96  N1      30.22F
#ELLENSBURG     N/A         25  25  100 CALM    N/A
#ELLENSBURG 1E  N/A         20  N/A N/A CALM    N/A
#KITTITAS 4N    N/A         25  22  88  E1      30.25F
#KITTITAS 3S    N/A         18  17  96  CALM    30.34F
#THORP 6N       N/A         31  30  96  CALM    30.29F
$$

WAZ027-101410-
YAKIMA VALLEY

CITY            SKY/WX      TMP DP  RH  WIND    PRES   REMARKS
SUNNYSIDE AP    MOCLDY      28  27  96  CALM    30.25F
YAKIMA AIRPORT  MOCLDY      32  27  82  NW6     30.26S
6HR MIN TEMP:   30; 6HR MAX TEMP:   37;

#GRANDVIEW      N/A         30  28  92  CALM    30.29F
#MABTON         N/A         32  31  96  CALM    30.25F
#NACHES 2SW     N/A         35  32  89  CALM    30.21F
#SELAH 8E       N/A         28  28  100 CALM    N/A
#TERRACE HTS    N/A         30  28  92  CALM    30.24F
#TOPPENISH      N/A         32  30  92  E1      30.18F
#WEST VALLEY    N/A         32  29  89  CALM    30.25F
#W YAKIMA       N/A         34  31  89  CALM    30.28S
#WHITE SWAN 5E  N/A         30  29  96  CALM    30.27F
$$

WAZ028-101410-
LOWER COLUMBIA BASIN...WASHINGTON

CITY            SKY/WX      TMP DP  RH  WIND    PRES   REMARKS
6HR MIN TEMP:   32; 6HR MAX TEMP:   39;

PASCO           PTCLDY      27  25  92  N5      30.28S
PROSSER AWOS    N/A         30  30  100 N2      30.28F
RICHLAND AWOS   MOCLDY      29  29  100 CALM    30.29R FOG
#CONNELL 5N     N/A         32  31  96  NE1     30.29S
#ELTOPIA 6NW    N/A         33  31  92  CALM    29.22R
#KAHLOTUS       N/A         31  30  96  CALM    30.29R
#KENNEWICK 3S   N/A         33  30  89  CALM    30.29R
#PATERSON       N/A         34  32  92  CALM    30.27F
#PROSSER        N/A         36  32  85  CALM    30.27F
#SAGEMOOR 2W    N/A         36  33  89  CALM    30.14R
#TOUCHET 2S     N/A         26  24  92  CALM    30.27S
#WEST PASCO     N/A         30  26  85  CALM    30.30S
$$

WAZ029-101410-
FOOTHILLS OF THE BLUES...WASHINGTON

CITY            SKY/WX      TMP DP  RH  WIND    PRES   REMARKS
WALLA WALLA AP  CLEAR       32  30  92  NE3     30.22F
#CLYDE 6NW      N/A         32  31  96  CALM    30.27F
#DAYTON SCHOOL  N/A         32  26  78  NE2     30.23F
#LOWDEN 2SE     N/A         28  27  96  CALM    30.23F
#PLEASANT VIEW 1N/A         34  33  96  CALM    30.31S
#PRESCOTT       N/A         34  33  96  CALM    30.26S
#WHITMAN COLLEGEN/A         36  34  92  NE2     30.32F
#WAITSBURG 5S   N/A         36  33  89  N3      30.35F
#WAITSBURG 8N   N/A         38  30  73  NW3     30.06F
#WALLA WALLA U  N/A         33  31  92  CALM    30.28F
#WHITMAN MISSIONN/A         29  27  92  CALM    30.29F
$$

WAZ030-101410-
BLUE MOUNTAINS...WASHINGTON

CITY            SKY/WX      TMP DP  RH  WIND    PRES   REMARKS
#DIXIE 5SE      N/A         48  32  54  E5      30.12F
#SKI BLUEWOOD   N/A         32  27  82  SW1     30.22F
$$

ORZ009-041-WAZ024-101410-
COLUMBIA RIVER GORGE

CITY            SKY/WX      TMP DP  RH  WIND    PRES   REMARKS
HOOD RIVER AP   PTCLDY      32  32  100 CALM    30.26R
THE DALLES AP   MOCLDY      32  30  92  CALM    30.28R FOG
#ARLINGTON AIRPON/A         35  33  92  CALM    30.27F
#ARLINGTON HS   N/A         31  29  92  CALM    30.18F
#LYLE           N/A         37  35  92  NE3     30.29R
#MARYHILL 2W    N/A         36  36  100 CALM    N/A
#MOSIER 1S      N/A         34  30  85  CALM    30.26S
#MURDOCK        N/A         36  34  92  W1      30.25R

$$

ORZ510-101410-
NORTH CENTRAL OREGON

CITY            SKY/WX      TMP DP  RH  WIND    PRES   REMARKS
#CHENOWITH 1W   N/A         37  35  92  SW2     N/A
#COW CYN RST AREN/A         39  33  79  SW8     N/A
#GRASS VALLEY 1SN/A         33  31  92  SE3     30.28R
#MAUPIN SCHOOL  N/A         34  31  89  CALM    30.26R
#MORO SCHOOL    N/A         33  33  100 CALM    30.22R
#SHANIKO 4NW    N/A         41  33  73  SW7     30.18R
#TYGH VALLEY 2NEN/A         33  31  92  CALM    30.26F
#WAPANITIA AIRPON/A         31  29  92  CALM    30.28S
#WASCO 5NE      N/A         32  30  92  CALM    30.26R
$$

ORZ511-101410-
CENTRAL OREGON

CITY            SKY/WX      TMP DP  RH  WIND    PRES   REMARKS
BEND AIRPORT    PTCLDY      39  32  76  E8      30.22R
MADRAS AIRPORT  MOCLDY      32  32  100 SE6     30.24R
PRINEVILLE AP   MOCLDY      39  32  76  S9      30.25R
REDMOND AIRPORT MOCLDY      42  32  67  SE12    30.21S WCI 35
#ASHWOOD SCHOOL N/A         30  29  96  CALM    30.16R
#BEND 6E        N/A         38  29  70  CALM    30.21R
#BEND 1SW       N/A         38  33  82  SW1     N/A
#BEND-KIM LN    N/A         36  33  89  S1      30.20R
#LAKE BILLY CHINN/A         37  N/A N/A E3      30.28S
#MADRAS         N/A         33  32  96  SE5     N/A
#PRINEVILLE 3N  N/A         31  28  88  E1      30.27R
#WARM SPRINGS   N/A         30  28  92  CALM    30.20S

$$


ORZ509-101410-
EAST SLOPES OF OREGON CASCADES

CITY            SKY/WX      TMP DP  RH  WIND    PRES   REMARKS
SISTERS AWOS    N/A         27  25  92  CALM    30.16S
#BLUE BOX PASS  N/A         43  N/A N/A SW8     N/A
#BLACK BUTTE RNCN/A         30  28  92  CALM    30.27S
#CAMP SHERMAN   N/A         26  23  88  CALM    30.36R
#LA PINE 4NW    N/A         25  21  84  CALM    30.36F
#SISTERS AIRPOR N/A         27  27  100 CALM    30.17S
#SISTERS ODOT   N/A         28  N/A N/A CALM    N/A
#SISTERS 3N     N/A         26  21  81  S3      30.21S
#SUNRIVER       N/A         29  27  92  SW1     30.34R
#SUTTLE LK DOT  N/A         25  25  100 E1      N/A
#TUMALO 3W      N/A         38  33  82  N3      30.11R
#WANOGA BUTTE D N/A         38  27  64  CALM    N/A

$$

ORZ044-101410-
LOWER COLUMBIA BASIN...OREGON

CITY            SKY/WX      TMP DP  RH  WIND    PRES   REMARKS
HERMISTON       MOCLDY      28  26  92  CALM    30.25S
#BOARDMAN SCHOOLN/A         28  26  92  CALM    30.28F
#BOARDMAN 8SW   N/A         33  31  92  CALM    30.26F
#ECHO 8SW       N/A         31  27  85  CALM    30.26S
#IONE SCHOOL    N/A         31  20  63  CALM    30.20F
#IRRIGON 4NW    N/A         28  28  100 E2      N/A
#UMATILLA SCHOOLN/A         25  25  100 CALM    30.35F
#UMATILLA       N/A         31  27  85  CALM    30.23R
$$

ORZ507-101410-
NORTHERN FOOTHILLS OF THE BLUES

CITY            SKY/WX      TMP DP  RH  WIND    PRES   REMARKS
PENDLETON AIRPT MOCLDY      29  28  96  E3      30.21F
#ADAMS 3WNW     N/A         29  27  92  CALM    30.27F
#ATHENA         N/A         31  29  92  CALM    30.29F
#CAYUSE         N/A         37  34  89  CALM    30.26F
#HELIX SCHOOL   N/A         35  32  89  CALM    30.27R
#HELIX 3N       N/A         40  34  79  N7      30.17S
#HELIX 6SW      N/A         31  29  92  NE2     30.20S
#HOLDMAN 5SE    N/A         31  29  92  SE3     30.20F
#HOLDMAN 6E     N/A         33  30  89  CALM    30.07F
#M-F GROVE ELEM N/A         33  29  85  CALM    30.21F
#M-FREEWATER 5SEN/A         32  30  92  CALM    30.21F
#PENDLETON DNTN N/A         30  23  75  CALM    30.25F
#PDT AQUATIC CTRN/A         30  23  75  CALM    30.22S
#PDT SUNRIDGE   N/A         27  26  96  CALM    30.24F
#PENDLETON 7NW  N/A         31  28  88  E3      27.03S
#PILOT ROCK     N/A         30  22  72  N1      30.21F
#TUTUILLA       N/A         31  29  92  CALM    30.27S
#WESTON SCHOOL  N/A         38  32  79  CALM    30.17F

$$

ORZ508-101410-
SOUTHERN FOOTHILLS OF THE BLUES

CITY            SKY/WX      TMP DP  RH  WIND    PRES   REMARKS
LEXINGTON       MOCLDY      36  34  92  E3      30.24F
#CONDON SCHOOL  N/A         40  36  85  VRB3    30.14S
#CONDON 5W      N/A         46  32  58  SW2     30.16S
#HEPPNER EOC    N/A         36  31  82  E1      30.19S
#LEXINGTON 2SE  N/A         34  30  85  CALM    30.16F
#MIKKALO        N/A         34  31  89  SE1     30.29F
#OLEX 4N        N/A         36  34  92  CALM    30.19F
#RUGGS 5NE      N/A         44  32  62  N8      30.33S

$$

ORZ502-503-101410-
BLUE MOUNTAINS

CITY            SKY/WX      TMP DP  RH  WIND    PRES   REMARKS
MEACHAM         CLEAR       33  27  78  CALM    30.24F
#LONG CREEK HS  N/A         30  30  100 CALM    N/A
#PIKES PEAK     N/A         54  26  34  S13     27.99S
#TOLLGATE       N/A         28  25  88  CALM    30.08S
#TROY SCHOOL    N/A         33  30  89  SW6     30.27S
#UKIAH          N/A         24  22  92  CALM    30.28F
#WESTON 4E      N/A         40  29  64  E15     30.20S WCI 32
$$

ORZ505-101410-
JOHN DAY BASIN

CITY            SKY/WX      TMP DP  RH  WIND    PRES   REMARKS
JOHN DAY        PTCLDY      36  28  72  E13     30.27F WCI 27
#MITCHELL       N/A         39  34  82  CALM    30.34F
#MITCHELL 8NW   N/A         49  31  50  CALM    30.40S
#MONUMENT HS    N/A         31  27  85  CALM    30.20R
#SPRAY SCHOOL   N/A         41  N/A N/A CALM    N/A
#WINLOCK        N/A         41  30  65  N5      30.18F
$$

ORZ506-101410-
OCHOCO AND JOHN DAY HIGHLANDS

CITY            SKY/WX      TMP DP  RH  WIND    PRES   REMARKS
#HORSE RIDGE DO N/A         37  29  72  SE12    N/A    WCI 29
#PAULINA SCHOOL N/A         50  37  61  CALM    30.22S
#PINE MTN OBS   N/A         43  27  53  S15     N/A    WCI 36
#SENECA         N/A         16  N/A N/A CALM    N/A
#SENECA 9NW     N/A         18  16  92  CALM    30.45S
$$

ORZ049-101410-
GRANDE RONDE VALLEY

CITY            SKY/WX      TMP DP  RH  WIND    PRES   REMARKS
LA GRANDE       CLEAR       36  27  69  S21G26  30.32S WCI 25
#COVE           N/A         28  26  92  S1      30.35R
#COVE SCHOOL    N/A         29  26  88  CALM    30.32S
#COVE 6NW       N/A         33  29  85  SE6     30.24S
#ELGIN 3N       N/A         33  24  69  SW5     30.29S
#ELGIN 1E       N/A         34  29  82  CALM    N/A
#IMBLER SCHOOL  N/A         33  28  82  S12     30.27S WCI 24
#ISLAND CITY 4N N/A         42  40  93  CALM    30.15F
#UNION 1S       N/A         33  29  85  S15G25  30.34S WCI 23
$$

ORZ050-101410-
WALLOWA COUNTY

CITY            SKY/WX      TMP DP  RH  WIND    PRES   REMARKS
#ENTERPRISE AP  N/A         28  26  92  CALM    30.21F
#ENTERPRISE HS  N/A         28  27  96  CALM    30.29F
#IMNAHA SCHOOL  N/A         34  30  85  N3      30.28S
#JOSEPH 3N      N/A         27  24  88  CALM    30.29S
#JOSEPH 3W      N/A         22  18  84  CALM    30.08S
#LOSTINE        N/A         28  27  96  CALM    30.27S
#MT HOWARD 8000 N/A         44  12  27  S3      30.32R
#PROMISE 1S     N/A         26  24  92  CALM    30.52R
#WALLOWA SCHOOL N/A         30  29  96  CALM    30.29S



$$



USA.gov is the U.S. government's official web portal to all federal, state and local government web resources and services.